Probability
0 6 29 45 35 35 45 39 42 42 42 45 39 39 42 39 35 32 26 29 26 29 26 23 23 16 16 16 13 19 16 16 19 16 10 3 0 0 0 0 0 0 0
0 6 39 42 39 39 42 35 39 42 42 35 35 39 39 35 32 29 26 26 23 26 23 19 19 13 10 16 10 16 16 19 19 13 10 0 0 0 0 0 0 0 0
0 6 32 45 35 42 42 35 35 39 39 39 35 35 39 35 35 29 23 23 26 26 23 19 16 6 10 13 13 10 10 10 10 10 0 0 0 0 0 0 0 0 0
0 10 26 45 35 39 39 35 35 35 32 32 39 35 35 32 29 29 23 23 23 19 16 16 16 16 10 13 13 10 10 10 3 3 0 0 0 0 0 0 0 0 0
3 10 13 42 39 39 35 32 32 35 35 29 32 32 35 32 26 23 19 23 19 19 19 23 19 16 10 10 13 10 10 6 0 0 0 0 0 0 0 0 0 0 0
0 6 10 39 35 35 29 29 32 29 32 29 29 32 32 32 35 26 26 16 16 16 19 19 13 16 10 10 10 10 6 6 0 0 0 0 0 0 3 0 0 0 0
0 3 6 23 29 29 26 29 26 26 29 29 32 29 29 32 35 35 26 19 16 16 23 19 13 10 10 10 10 10 6 3 0 0 0 0 0 0 0 3 0 0 0
3 3 6 19 26 32 23 26 19 26 23 23 26 29 29 26 26 23 23 19 19 16 19 16 10 6 6 10 10 6 6 0 0 0 0 0 0 0 0 0 3 0 3
6 3 3 6 13 16 19 26 23 19 23 23 19 26 19 26 23 19 16 19 19 19 19 19 10 3 6 10 6 10 0 0 0 0 0 0 0 0 3 3 3 6 3
3 0 3 6 3 3 6 13 13 19 19 19 16 13 13 13 16 16 16 13 16 16 13 10 10 6 6 3 6 3 0 0 0 0 0 0 0 0 3 6 3 3 3
3 0 0 6 3 3 3 3 6 13 13 10 6 3 0 0 3 0 0 3 13 13 13 10 6 3 3 0 0 0 0 0 0 0 0 0 0 0 3 6 3 3 3
6 6 6 3 3 3 3 3 3 3 0 0 0 0 0 0 0 0 0 0 0 3 3 6 6 3 0 0 0 0 0 0 0 0 0 0 0 0 3 6 3 3 3
0 3 3 3 3 3 3 3 3 0 0 0 0 0 0 0 0 0 0 0 0 0 0 0 0 0 0 0 0 0 0 0 0 0 0 0 0 3 3 3 3 3 3
0 0 0 3 3 3 3 3 3 0 0 0 0 0 0 0 0 0 0 0 0 0 0 0 0 0 0 0 0 0 0 0 0 0 0 0 0 0 0 3 3 3 3
0 0 0 0 3 3 3 3 3 0 0 0 0 0 0 0 0 0 0 0 0 0 0 0 0 0 0 0 0 0 0 0 0 0 0 0 0 0 0 0 3 3 3
0 0 0 0 0 0 0 0 0 0 0 0 0 0 0 0 0 0 0 0 0 0 0 0 0 0 0 0 0 0 0 0 0 0 0 0 0 0 0 0 0 0 3
0 0 0 0 0 0 0 0 0 0 0 0 0 0 0 0 0 0 0 0 0 0 0 0 0 0 0 0 0 0 0 0 0 0 0 0 0 0 0 0 0 0 0
0 0 0 0 0 0 0 0 0 0 0 0 0 0 0 0 0 0 0 0 0 0 0 0 0 0 0 0 0 0 0 0 0 0 0 0 0 0 0 0 0 0 0
0 0 0 0 0 0 0 0 0 0 0 0 0 0 0 0 0 0 0 0 0 0 0 0 0 0 0 0 0 0 0 0 0 0 0 0 0 0 0 0 0 0 0
0 0 0 0 0 0 0 0 0 0 0 0 0 0 0 0 0 0 0 0 0 0 0 0 0 0 0 0 0 0 0 0 0 0 0 0 0 0 0 0 0 0 0
0 0 0 0 0 0 0 0 0 0 0 0 0 0 0 0 0 0 0 0 0 0 0 0 0 0 0 0 0 0 0 0 0 0 0 0 0 0 0 0 0 0 0
0 0 0 0 0 0 0 0 0 0 0 0 0 0 0 0 0 0 0 0 0 0 0 0 0 0 0 0 0 0 0 0 0 0 0 0 0 0 0 0 0 0 0
0 0 0 0 0 0 0 0 0 0 0 0 0 0 0 0 0 0 0 0 0 0 0 0 0 0 0 0 0 0 0 0 0 0 0 0 0 0 0 0 0 0 0
0 0 0 0 0 0 0 0 0 0 0 0 0 0 0 0 0 0 0 0 0 0 0 0 0 0 0 0 0 0 0 0 0 0 0 0 0 0 0 0 0 0 0
0 0 0 0 0 0 0 0 0 0 0 0 0 0 0 0 0 0 0 0 0 0 0 0 0 0 0 0 0 0 0 0 0 0 0 0 0 0 0 0 0 0 0
0 0 0 0 0 0 0 0 0 0 0 0 0 0 0 0 0 0 0 0 0 0 0 0 0 0 0 0 0 0 0 0 0 0 0 0 0 0 0 0 0 0 0
Height
5852 5852 5853 5854 5855 5856 5856 5857 5858 5859 5859 5860 5860 5861 5862 5862 5862 5862 5863 5863 5864 5864 5864 5864 5864 5864 5864 5864 5864 5864 5864 5863 5863 5863 5863 5862 5862 5862 5862 5862 5862 5862 5861
5849 5850 5851 5852 5853 5853 5854 5855 5856 5857 5857 5858 5858 5859 5860 5860 5860 5861 5861 5862 5862 5862 5862 5862 5863 5863 5862 5862 5862 5862 5862 5862 5862 5861 5861 5861 5860 5860 5860 5860 5860 5860 5859
5847 5848 5849 5849 5850 5851 5852 5852 5853 5854 5855 5855 5856 5857 5857 5858 5858 5859 5859 5859 5860 5860 5860 5860 5860 5860 5860 5860 5860 5860 5860 5860 5860 5859 5859 5859 5858 5858 5858 5858 5858 5857 5857
5844 5845 5846 5847 5848 5848 5849 5850 5850 5851 5852 5853 5853 5854 5855 5855 5855 5856 5856 5857 5857 5857 5858 5858 5858 5858 5858 5857 5857 5857 5857 5857 5857 5857 5857 5856 5856 5856 5856 5855 5855 5855 5855
5841 5842 5843 5844 5845 5846 5846 5847 5847 5848 5849 5850 5850 5851 5851 5852 5852 5853 5853 5854 5854 5854 5855 5855 5855 5855 5855 5854 5854 5854 5854 5854 5854 5854 5854 5854 5854 5853 5853 5853 5853 5852 5852
5838 5839 5840 5841 5842 5843 5843 5844 5845 5845 5846 5847 5847 5848 5848 5849 5849 5849 5850 5850 5850 5851 5851 5851 5851 5851 5851 5851 5851 5851 5851 5851 5851 5851 5851 5851 5851 5850 5850 5850 5850 5849 5849
5835 5836 5837 5838 5839 5839 5840 5841 5841 5842 5843 5843 5844 5844 5845 5845 5845 5846 5846 5846 5847 5847 5847 5847 5847 5847 5847 5847 5847 5847 5847 5847 5848 5847 5847 5847 5847 5847 5847 5846 5846 5846 5845
5831 5832 5833 5834 5835 5836 5837 5837 5838 5838 5839 5839 5840 5840 5841 5841 5841 5842 5842 5842 5842 5843 5843 5843 5843 5843 5843 5843 5843 5843 5843 5843 5843 5843 5843 5843 5843 5843 5842 5842 5842 5841 5841
5828 5829 5830 5831 5831 5832 5833 5833 5834 5834 5835 5835 5836 5836 5836 5837 5837 5837 5838 5838 5838 5838 5838 5839 5839 5839 5839 5839 5839 5839 5839 5839 5838 5838 5839 5838 5838 5838 5838 5837 5837 5837 5836
5823 5824 5825 5826 5827 5828 5828 5829 5829 5830 5830 5831 5831 5831 5832 5832 5832 5833 5833 5833 5834 5834 5834 5834 5834 5834 5834 5834 5834 5834 5834 5834 5833 5833 5833 5833 5833 5833 5832 5832 5832 5832 5831
5819 5820 5821 5822 5822 5823 5824 5824 5824 5825 5825 5826 5826 5826 5827 5827 5827 5828 5828 5828 5828 5828 5828 5828 5828 5829 5829 5828 5828 5828 5828 5828 5828 5828 5828 5828 5827 5827 5827 5826 5826 5826 5826
5814 5815 5816 5817 5817 5818 5818 5819 5819 5819 5820 5820 5820 5821 5821 5821 5821 5822 5822 5822 5822 5823 5823 5823 5823 5823 5823 5822 5822 5822 5822 5822 5822 5822 5822 5821 5821 5821 5820 5820 5820 5820 5819
5808 5809 5810 5811 5812 5813 5813 5814 5814 5814 5814 5814 5815 5815 5815 5815 5816 5816 5816 5816 5816 5816 5816 5816 5816 5816 5816 5816 5816 5816 5816 5816 5815 5815 5815 5815 5814 5814 5813 5813 5813 5813 5812
5802 5803 5804 5805 5806 5807 5807 5808 5808 5808 5809 5809 5809 5809 5809 5809 5809 5809 5809 5809 5809 5809 5810 5810 5809 5809 5809 5809 5809 5809 5808 5808 5808 5808 5808 5807 5807 5806 5806 5805 5805 5805 5804
5796 5797 5798 5799 5800 5801 5801 5802 5802 5802 5802 5802 5802 5802 5803 5803 5803 5803 5802 5802 5802 5802 5802 5802 5802 5802 5802 5801 5801 5801 5801 5801 5800 5800 5800 5799 5799 5798 5798 5797 5797 5796 5796
5790 5791 5791 5792 5793 5794 5795 5795 5795 5795 5796 5796 5796 5796 5795 5795 5795 5795 5795 5794 5794 5794 5794 5794 5794 5794 5794 5793 5793 5793 5793 5792 5792 5792 5791 5791 5790 5790 5789 5788 5788 5787 5787
5783 5784 5785 5785 5786 5787 5787 5788 5788 5788 5788 5789 5789 5788 5788 5787 5787 5787 5786 5786 5785 5785 5785 5785 5785 5785 5785 5784 5784 5784 5784 5783 5783 5783 5782 5782 5781 5780 5780 5779 5778 5778 5777
5776 5776 5777 5778 5778 5779 5780 5780 5780 5780 5780 5780 5780 5780 5779 5779 5778 5778 5777 5777 5776 5776 5775 5775 5775 5775 5775 5775 5775 5774 5774 5774 5773 5773 5772 5771 5771 5770 5770 5769 5768 5768 5767
5768 5769 5769 5770 5770 5771 5771 5771 5772 5772 5772 5772 5771 5771 5770 5769 5769 5768 5768 5767 5766 5766 5765 5764 5764 5764 5764 5764 5764 5764 5764 5763 5763 5762 5761 5761 5760 5759 5759 5758 5758 5757 5756
5760 5760 5761 5761 5762 5762 5762 5763 5763 5763 5763 5762 5762 5761 5760 5759 5759 5758 5757 5757 5755 5754 5754 5753 5753 5753 5753 5753 5753 5753 5753 5752 5751 5751 5750 5749 5748 5747 5747 5746 5746 5745 5745
5751 5752 5752 5753 5753 5753 5753 5753 5754 5754 5753 5753 5752 5751 5750 5749 5748 5747 5746 5745 5744 5742 5741 5741 5740 5740 5741 5740 5740 5741 5741 5740 5740 5739 5738 5736 5736 5735 5734 5734 5733 5733 5732
5742 5743 5743 5743 5743 5743 5743 5743 5744 5743 5743 5743 5742 5741 5740 5739 5737 5736 5735 5733 5732 5730 5729 5728 5728 5728 5728 5727 5727 5727 5728 5729 5728 5727 5725 5724 5723 5722 5721 5720 5720 5719 5719
5733 5733 5733 5733 5733 5733 5733 5733 5733 5732 5732 5732 5731 5731 5729 5728 5726 5725 5723 5721 5720 5718 5717 5716 5715 5714 5715 5714 5713 5712 5712 5714 5715 5715 5713 5711 5709 5708 5707 5706 5705 5705 5705
5723 5723 5723 5723 5723 5722 5722 5722 5722 5722 5722 5722 5721 5720 5719 5717 5715 5714 5712 5710 5708 5706 5704 5703 5702 5701 5701 5701 5699 5698 5697 5696 5697 5699 5700 5697 5695 5693 5692 5691 5690 5689 5689
5712 5712 5712 5712 5712 5711 5711 5711 5711 5711 5710 5710 5709 5709 5708 5706 5704 5702 5700 5697 5695 5693 5692 5690 5689 5688 5687 5686 5685 5684 5682 5681 5680 5680 5682 5682 5680 5678 5676 5675 5673 5673 5673
5701 5701 5701 5702 5701 5701 5701 5700 5700 5700 5699 5699 5698 5697 5696 5695 5692 5690 5687 5685 5682 5680 5679 5677 5676 5675 5673 5672 5670 5668 5667 5666 5665 5663 5664 5665 5664 5663 5661 5659 5657 5657 5656
Wind_Speed
12 12 12 12 11 11 11 10 10 10 9 8 8 8 8 8 8 8 8 8 8 8 8 8 8 9 9 9 9 9 9 9 9 9 9 9 9 9 8 8 8 9 9
13 13 13 13 13 12 12 12 12 12 11 11 10 10 10 10 10 10 10 10 10 10 10 10 10 11 11 11 11 11 11 11 11 11 11 11 10 10 10 10 10 10 11
14 14 14 14 14 13 13 13 13 13 13 13 13 13 12 12 13 13 13 13 12 12 12 12 12 13 13 13 13 13 12 12 12 12 12 12 11 11 11 11 11 12 12
15 15 14 14 14 14 14 14 14 14 14 14 15 15 15 14 15 15 15 15 15 15 15 15 15 15 15 15 15 15 14 14 14 14 14 13 13 13 13 13 13 13 14
16 16 15 15 15 15 15 15 15 15 15 15 16 16 16 17 17 17 17 17 17 17 17 17 17 17 16 16 16 16 16 15 16 16 16 15 15 15 14 15 15 15 15
17 16 16 16 16 16 16 16 16 16 17 17 17 18 18 18 19 19 18 19 19 19 19 19 19 19 18 18 18 17 18 18 18 18 18 18 17 17 17 17 17 17 17
18 18 18 17 17 17 17 17 18 18 18 18 18 19 19 20 20 20 20 20 20 20 20 20 20 20 20 20 19 19 20 20 20 20 20 20 20 19 19 19 19 19 19
19 19 19 19 19 19 19 19 20 20 20 20 20 21 21 21 21 21 21 21 21 21 21 21 21 22 22 22 22 21 21 22 22 22 22 22 22 22 22 22 22 22 22
21 21 20 20 20 20 20 21 21 22 22 22 22 22 23 22 22 22 22 22 22 22 23 23 23 23 23 23 23 24 23 24 24 24 24 24 24 24 24 24 24 24 24
22 22 22 22 22 22 22 22 23 23 24 24 24 24 25 24 24 24 24 24 24 24 25 25 25 25 25 25 25 25 25 25 26 26 26 26 26 26 26 26 26 26 26
24 24 24 24 24 24 24 24 24 24 25 25 25 25 25 25 26 25 25 25 26 26 27 27 27 27 28 28 28 28 28 28 28 28 28 28 28 28 28 28 28 28 28
25 26 25 25 25 25 25 25 25 25 26 26 26 26 26 26 26 27 27 28 28 28 29 29 29 29 29 30 30 30 30 30 30 30 30 30 31 31 31 30 30 30 30
27 27 27 27 26 26 26 26 26 26 26 27 27 27 28 28 27 28 29 29 30 30 30 31 31 31 31 31 32 32 32 32 32 32 32 32 33 33 33 33 33 33 32
28 28 28 28 28 28 27 27 26 26 26 27 28 28 29 29 29 29 30 30 31 31 31 32 32 32 32 33 33 33 34 34 34 34 34 34 34 34 35 35 35 35 35
30 30 30 30 29 29 29 29 28 28 28 28 28 29 30 30 31 31 31 32 32 33 33 34 34 34 34 34 35 35 35 36 36 36 36 36 36 36 36 37 37 37 37
30 30 31 30 30 30 30 30 30 30 30 30 30 31 32 32 33 34 34 34 35 36 36 37 37 37 38 37 37 37 37 38 38 38 38 38 38 38 38 38 39 38 38
31 32 32 32 32 33 33 33 33 33 33 32 33 34 35 35 35 36 37 37 38 39 39 40 40 40 40 40 40 40 40 41 41 40 40 40 40 40 40 40 40 41 40
33 33 34 34 34 35 35 35 35 35 35 35 35 36 37 37 38 38 39 40 40 41 42 42 42 42 42 42 42 42 42 42 43 43 43 43 43 42 42 43 43 43 43
35 35 35 35 36 36 37 37 38 37 37 38 38 38 38 39 40 40 41 42 43 43 44 44 44 44 44 44 44 45 44 44 44 45 45 45 45 45 45 45 45 45 45
36 36 37 37 37 38 39 39 40 40 40 39 40 40 40 41 41 42 43 44 45 45 46 46 47 47 47 47 47 47 47 46 46 47 47 47 47 47 47 47 47 47 47
37 38 38 38 39 39 40 40 41 41 41 41 41 42 42 42 43 43 44 45 46 47 48 47 48 49 49 50 49 49 49 49 49 49 49 49 49 50 50 50 50 49 49
39 39 39 39 40 40 41 41 42 42 43 43 42 43 43 43 44 44 45 46 47 48 49 49 49 50 51 51 52 51 51 51 51 51 51 51 52 52 52 52 52 52 52
39 40 40 40 41 41 42 42 43 43 44 44 44 44 44 45 45 45 46 47 47 48 49 50 50 51 51 52 53 54 54 54 53 52 53 53 54 55 54 54 54 54 54
41 41 41 42 42 43 43 43 44 44 44 44 45 45 46 46 46 46 46 48 49 49 49 50 51 52 52 53 54 55 56 57 56 55 54 55 56 56 56 57 56 56 55
41 41 42 42 42 43 44 44 44 44 45 45 46 46 46 47 47 47 47 48 49 50 51 51 51 52 53 54 55 56 57 58 59 59 57 56 56 57 57 57 57 57 58
41 41 42 42 42 42 43 44 45 45 46 46 47 47 48 48 48 48 49 49 49 50 51 52 52 53 54 55 56 56 57 58 59 59 58 57 56 56 56 57 57 58 58
Wind_Direction
249 251 253 255 258 260 261 260 259 261 263 265 265 269 274 282 288 293 296 295 294 294 292 293 296 300 303 305 306 307 307 306 303 304 302 298 298 297 296 296 297 298 299
249 250 252 255 257 262 264 263 261 261 264 267 268 270 274 278 281 285 288 288 289 290 290 290 292 296 298 297 295 297 299 299 298 301 302 297 293 293 293 293 296 295 295
248 249 251 253 256 260 264 264 261 261 264 267 269 271 273 276 278 281 282 283 284 285 285 288 288 291 293 292 290 290 292 292 293 295 297 295 291 291 290 288 292 293 293
248 250 251 252 255 258 261 262 261 261 264 266 268 270 272 274 276 279 279 279 280 281 281 283 285 286 288 288 286 286 286 288 289 291 293 291 289 289 288 289 290 290 291
249 250 251 253 255 258 260 261 261 261 263 265 267 270 272 275 276 277 277 277 278 278 279 280 282 284 286 285 284 283 283 284 286 288 290 289 287 286 286 287 289 289 288
249 250 251 253 255 258 261 262 263 264 265 266 267 270 272 275 276 276 276 276 276 277 278 279 280 281 284 284 282 282 282 281 283 285 287 286 285 284 284 283 285 286 287
250 251 253 254 257 259 261 263 264 265 266 267 268 270 272 274 275 276 275 275 276 277 278 279 280 280 282 283 282 281 281 281 282 283 285 285 284 283 282 282 282 283 285
251 253 255 258 261 262 264 265 265 265 266 268 269 271 272 273 274 274 274 274 275 276 277 278 279 280 281 281 281 282 281 280 281 281 282 283 283 282 282 281 282 282 283
252 254 256 259 262 264 266 267 268 268 267 267 269 271 272 273 273 273 273 274 274 275 277 278 278 279 280 281 281 281 280 281 281 280 280 281 281 281 280 280 280 281 281
253 254 257 260 262 265 267 269 270 269 269 269 270 272 273 273 272 272 273 273 274 275 276 277 278 278 279 280 281 282 281 281 281 281 281 281 280 279 279 279 279 279 279
253 255 257 260 263 266 268 270 270 270 269 270 271 272 273 273 273 273 273 274 275 276 276 277 278 278 278 279 280 281 281 280 280 280 281 281 280 279 279 279 279 279 278
255 257 259 261 263 265 267 269 270 271 271 272 272 272 272 273 273 273 273 273 274 276 276 277 278 278 278 279 280 280 280 280 279 279 279 280 280 279 280 280 279 278 278
256 258 260 261 262 264 266 268 270 272 273 273 272 273 273 273 273 273 273 273 274 275 276 276 276 278 279 280 280 280 279 280 280 279 279 279 280 279 280 279 279 278 277
258 259 260 261 263 264 266 267 269 271 272 273 273 274 273 273 274 275 275 274 274 275 275 275 276 277 278 278 279 279 279 279 279 279 279 279 279 279 279 279 279 278 277
258 259 260 261 263 264 266 267 270 272 273 273 273 273 273 274 275 275 275 275 274 274 274 274 275 277 278 278 279 279 279 279 279 278 279 279 279 279 279 279 279 278 277
259 260 261 261 262 264 265 267 269 271 272 273 274 274 274 274 275 275 275 276 276 275 275 275 275 276 276 277 278 279 279 279 278 278 278 279 279 279 279 279 279 278 277
260 261 262 262 263 264 266 267 269 270 272 274 275 275 275 275 276 277 276 276 276 276 276 275 275 275 276 276 277 278 278 278 278 278 279 279 279 278 278 278 278 278 278
261 262 263 263 264 265 266 267 269 271 272 274 276 276 275 275 276 276 277 276 277 276 276 275 275 275 275 276 276 277 277 277 277 278 278 278 278 277 277 277 278 278 278
262 263 264 265 265 266 267 268 269 271 273 274 276 276 275 275 276 276 276 277 277 277 276 275 274 274 275 275 275 276 277 277 277 277 277 277 277 277 277 277 277 277 277
263 264 265 267 267 267 268 269 270 271 273 274 275 276 275 275 275 276 276 277 277 277 276 276 274 274 274 274 274 275 276 276 276 276 276 276 276 276 276 276 276 276 276
264 265 267 268 268 268 268 269 270 271 272 273 274 275 275 275 276 276 277 278 278 277 276 276 275 274 274 275 274 274 275 276 276 276 276 276 276 276 275 275 276 276 276
265 266 268 269 269 269 270 270 271 271 271 273 274 275 275 276 276 277 278 279 278 278 277 276 275 275 275 275 275 274 274 275 275 276 276 276 275 275 275 275 275 275 275
266 267 268 269 269 270 270 271 271 272 272 273 274 275 276 277 277 278 279 280 279 279 279 277 276 276 276 276 276 276 275 275 275 275 276 276 275 275 275 275 275 275 275
266 267 268 269 270 270 271 271 272 272 272 273 274 275 276 277 278 279 280 280 280 280 279 278 278 277 277 278 278 277 278 277 277 276 276 276 276 275 275 275 275 275 274
266 267 269 270 270 271 271 271 271 271 272 273 274 276 277 278 278 279 280 281 281 281 280 280 279 279 279 279 279 279 278 278 278 278 277 276 276 276 275 275 275 274 274
266 268 269 269 270 271 271 271 271 271 272 273 275 276 278 279 280 281 282 283 283 282 281 280 280 280 280 280 280 281 280 279 279 279 278 277 275 275 275 275 274 274 274